Location: Pittman
(37.9557°N, 80.9209°W)
Time: 04:12:55
(UTC+00:00)

ISS - Visible Passes

Search period start: 15 April 2026 00:00
Search period end: 25 April 2026 00:00
Orbit: 415 x 424 km, 51.6° (Epoch: 14 April)

Date Brightness Start Highest point End Pass type
(mag) Time Alt. Az. Time Alt. Az. Time Alt. Az.
15 Apr -2.2 10:20:47 10° SSW 10:23:50 33° SE 10:26:55 10° ENE visible
16 Apr -1.4 09:34:10 10° S 09:36:36 19° SE 09:39:03 10° E visible
17 Apr -0.9 08:48:41 10° SE 08:49:24 11° SE 08:50:07 10° ESE visible
18 Apr -3.5 09:36:20 21° SSW 09:38:22 62° SE 09:41:43 10° ENE visible
19 Apr -2.6 08:50:57 33° SE 08:51:01 33° SE 08:54:06 10° ENE visible
20 Apr -0.8 08:05:28 14° E 08:05:28 14° E 08:06:11 10° E visible
20 Apr -3.0 09:38:26 20° W 09:40:20 41° NW 09:43:33 10° NE visible
21 Apr -3.8 08:52:51 71° NW 08:52:51 71° NW 08:56:12 10° NE visible
22 Apr -1.4 08:07:12 24° ENE 08:07:12 24° ENE 08:08:44 10° NE visible
22 Apr -1.7 09:40:10 11° WNW 09:42:28 19° NNW 09:44:57 10° NNE visible
23 Apr -2.3 08:54:26 26° NW 08:54:50 26° NNW 08:57:45 10° NNE visible
24 Apr -1.6 08:08:40 26° NNE 08:08:40 26° NNE 08:10:27 10° NE visible
24 Apr -1.0 09:43:42 10° NW 09:44:47 11° NNW 09:45:53 10° N visible
